[[{"header":{"parameterUnit":"m.s-1","parameterCategory":2,"la1":30.2991,"la2":30.254,"lo1":-89.0895,"lo2":-89.0444,"dy":0.0017,"dx":0.0017,"nx":28,"ny":28,"refTime":"2025-05-18T21:00:00:Z","depth":"0","parameterNumber":2,"parameterNumberName":"U-component_of_CURRENTS"},"data":[0,0,0,0,0,0,0,0,0,0,0,0,0,0,0,0,0,0,0,0,0,0,0,0,0,0,0,0,0,0,0,0,0,0,0,0,0,0,0,0,0,0,0,0,0,0,0,0,0,0,0,0,0,0,0,0,0,0,0.2835,0.2836,0,0.2943,0.2944,0.2946,0.2994,0.2993,0.2993,0.2992,0.309,0.3093,0.3096,0,0,0,0,0,0,0,0,0,0,0,0,0,0.2724,0.2725,0.2835,0.2836,0.2837,0.2942,0.2944,0.2946,0.2994,0.2993,0.2993,0.2992,0.3089,0.3092,0.3096,0,0,0,0,0,0,0,0,0,0,0,0,0,0.2799,0.2726,0.2835,0.2871,0.2875,0.2942,0.2944,0.2947,0.2994,0.2993,0.2992,0.2992,0.3088,0.3092,0.3097,0.3138,0,0,0.311,0.3112,0,0,0,0,0,0,0,0,0.2794,0.2803,0.2865,0.2869,0.2873,0.2951,0.2941,0.3009,0.2994,0.2952,0.2992,0.2991,0.3041,0.3049,0.3076,0.3142,0.3147,0.3111,0.3114,0.3115,0.3117,0,0,0,0,0,0,0,0.2789,0.2799,0.2881,0.2866,0.2871,0.29,0.291,0.2954,0.3001,0.2956,0.2959,0.2966,0.3044,0.3071,0.3078,0.3148,0.3111,0.3115,0.3117,0.3119,0.3244,0.3245,0,0,0,0,0,0,0.2767,0.2794,0.2878,0.2884,0.2828,0.2902,0.2913,0.293,0.3001,0.3011,0.2966,0.2967,0.3064,0.3073,0.3082,0.3136,0.3115,0.312,0.3122,0.3244,0.3244,0.3245,0,0,0,0,0,0,0.2765,0.2774,0.2873,0.2838,0.2852,0.2904,0.2922,0.2932,0.2962,0.3008,0.3018,0.2985,0.3064,0.3076,0.3122,0.314,0.3122,0.3126,0.3243,0.3244,0.3245,0.3244,0,0,0,0,0,0,0.2761,0.2773,0.2786,0.2837,0.2853,0.2918,0.2923,0.2934,0.2965,0.2968,0.3028,0.3037,0.3064,0.3115,0.3127,0.3146,0.3129,0.3242,0.3243,0.3244,0.3243,0.3244,0.3246,0,0,0,0,0,0.2757,0.2778,0.2786,0.2796,0.2867,0.2918,0.2931,0.2966,0.2966,0.2989,0.3021,0.3035,0.313,0.312,0.3133,0.3154,0.3242,0.3243,0.3244,0.3242,0.3244,0.3246,0,0,0,0,0,0,0.2728,0.2786,0.2796,0.283,0.287,0.2925,0.2949,0.2968,0.3014,0.3014,0.305,0.3062,0.3114,0.3131,0.3118,0.3191,0.3186,0.319,0.318,0.3182,0.3183,0.3206,0.3133,0,0,0,0,0,0.2728,0.2768,0.2811,0.284,0.2856,0.2901,0.2927,0.2951,0.2992,0.3012,0.3049,0.3087,0.3132,0.3151,0.3197,0.3237,0.3288,0.3256,0.3257,0.3258,0.3285,0.3371,0.3383,0.325,0.325,0.3249,0,0,0.2722,0.2761,0.2781,0.2839,0.2871,0.2907,0.2917,0.2958,0.2991,0.3016,0.307,0.3102,0.3146,0.3195,0.3218,0.3209,0.3321,0.326,0.326,0.3287,0.3374,0.3387,0.3399,0.325,0.325,0.325,0,0,0.2734,0.2765,0.2799,0.2833,0.2882,0.2916,0.2924,0.2977,0.3004,0.3053,0.3081,0.3124,0.3181,0.3224,0.3249,0.3285,0.3332,0.3287,0.3309,0.3391,0.3404,0.3415,0.3491,0.351,0.3279,0.3279,0.3279,0,0.2717,0.2777,0.2815,0.285,0.2879,0.2916,0.2947,0.2987,0.3049,0.3073,0.3066,0.317,0.3201,0.3274,0.3286,0.3292,0.3345,0.3297,0.3395,0.3408,0.342,0.3495,0.3515,0.3279,0.3279,0.3279,0.3279,0,0.2762,0.28,0.2821,0.2883,0.2914,0.2955,0.2997,0.3034,0.3058,0.3094,0.3164,0.3211,0.3269,0.3281,0.3299,0.3392,0.3405,0.3394,0.3393,0.3433,0.3509,0.3531,0.3279,0.3279,0.3279,0.3279,0,0,0.2744,0.2835,0.2841,0.2864,0.2937,0.2961,0.3017,0.3079,0.3111,0.3164,0.3217,0.3292,0.3311,0.3344,0.337,0.344,0.3561,0.3453,0.3457,0.3533,0.3752,0.3693,0.371,0.3568,0.3572,0.3575,0.377,0,0.2767,0.2833,0.2879,0.2929,0.2959,0.3006,0.3049,0.3101,0.3149,0.3208,0.3266,0.3326,0.3335,0.3362,0.3437,0.3538,0.3618,0.351,0.37,0.3706,0.3652,0.3734,0.3489,0.3636,0.3791,0.3794,0.3797,0,0.2802,0.284,0.2893,0.2947,0.2961,0.2991,0.3058,0.3104,0.3192,0.3226,0.3299,0.335,0.3469,0.3456,0.3665,0.3597,0.3686,0.3757,0.3765,0.3732,0.3687,0.3622,0.367,0.3555,0.383,0.3827,0.3825,0,0.2781,0.2849,0.2892,0.2913,0.2978,0.2997,0.303,0.3104,0.3152,0.3245,0.33,0.3418,0.3504,0.363,0.377,0.3735,0.3999,0.3958,0.3993,0.399,0.3832,0.3808,0.3795,0.4121,0.412,0.412,0.4119,0,0.2803,0.2826,0.2876,0.2895,0.2919,0.2964,0.3007,0.3055,0.3146,0.3209,0.3306,0.3395,0.356,0.3715,0.3814,0.3979,0.4038,0.4037,0.405,0.3821,0.3795,0.3728,0.3698,0.4127,0.4125,0.4124,0.4123,0,0.2776,0.2826,0.2856,0.2903,0.2913,0.2921,0.2986,0.3023,0.3114,0.321,0.325,0.3432,0.3617,0.3775,0.3999,0.4045,0.4071,0.4229,0.3948,0.3923,0.3806,0.3785,0.3748,0.3651,0.4298,0.4298,0.4298,0,0.2774,0.2792,0.2834,0.2843,0.2862,0.2885,0.2907,0.2989,0.3045,0.3227,0.3282,0.3491,0.3607,0.3908,0.4006,0.417,0.4076,0.4061,0.3943,0.38,0.3787,0.3664,0.3575,0.3738,0.3733,0.3729,0.3726,0,0.275,0.2766,0.2792,0.2804,0.2821,0.2834,0.2878,0.2916,0.3028,0.3131,0.3271,0.3376,0.3625,0.3682,0.3895,0.3957,0.3818,0.3989,0.3909,0.3421,0.3219,0.3128,0.3619,0.3692,0.3696,0.3698,0.37,0.3701,0.2722,0.2728,0.2761,0.2759,0.2772,0.2764,0.2747,0.2824,0.2894,0.3004,0.3176,0.3265,0.3389,0.3628,0.3677,0.3575,0.3634,0.3467,0.3482,0.3394,0.3194,0.3619,0.3656,0.3659,0.3662,0.3664,0.3666,0,0.2683,0.2701,0.2709,0.27,0.2665,0.2694,0.2713,0.2684,0.2719,0.2858,0.2964,0.3033,0.3075,0.3158,0.3156,0.3077,0.2937,0.2998,0.2738,0.2703,0.3132,0.2995,0.2803,0.2803,0.2803,0.2803,0.2803,0.2803,0.2672,0.267,0.2666,0.2589,0.2568,0.2491,0.2472,0.246,0.2511,0.2531,0.2555,0.2652,0.2795,0.2839,0.273,0.2667,0.2496,0.2357,0.2457,0.2711,0.2753,0.2793,0.2654,0.2394,0.2393,0.1827,0.1823,0.182]},{"header":{"parameterUnit":"m.s-1","parameterCategory":2,"la1":30.2991,"la2":30.254,"lo1":-89.0895,"lo2":-89.0444,"dy":0.0017,"dx":0.0017,"nx":28,"ny":28,"refTime":"2025-05-18T21:00:00:Z","depth":"0","parameterNumber":3,"parameterNumberName":"V-component_of_CURRENTS"},"data":[0,0,0,0,0,0,0,0,0,0,0,0,0,0,0,0,0,0,0,0,0,0,0,0,0,0,0,0,0,0,0,0,0,0,0,0,0,0,0,0,0,0,0,0,0,0,0,0,0,0,0,0,0,0,0,0,0,0,0.0043,0.0041,0,-0.0068,-0.0068,-0.0069,-0.0112,-0.0112,-0.0112,-0.0112,-0.0191,-0.0193,-0.0195,0,0,0,0,0,0,0,0,0,0,0,0,0,0.0163,0.0161,0.0043,0.0041,0.0039,-0.0067,-0.0068,-0.007,-0.0112,-0.0112,-0.0112,-0.0112,-0.0191,-0.0193,-0.0195,0,0,0,0,0,0,0,0,0,0,0,0,0,0.0092,0.0161,0.0043,0.0002,-0.0003,-0.0067,-0.0068,-0.007,-0.0112,-0.0112,-0.0112,-0.0112,-0.019,-0.0193,-0.0196,-0.0211,0,0,-0.0205,-0.0206,0,0,0,0,0,0,0,0,0.0096,0.0088,0.001,0.0005,-0.0001,-0.008,-0.0056,-0.0117,-0.0111,-0.0065,-0.0112,-0.0112,-0.0154,-0.016,-0.0174,-0.0215,-0.0218,-0.0205,-0.0207,-0.0208,-0.0209,0,0,0,0,0,0,0,0.0101,0.0092,0.0004,0.0008,0.0001,-0.003,-0.0039,-0.0068,-0.0103,-0.0069,-0.0074,-0.0094,-0.0156,-0.0171,-0.0176,-0.0219,-0.0205,-0.0208,-0.021,-0.0211,-0.0227,-0.0226,0,0,0,0,0,0,0.0108,0.0097,0.0007,0.0,0.0043,-0.0032,-0.0042,-0.0051,-0.0104,-0.0114,-0.0093,-0.0095,-0.0166,-0.0173,-0.0179,-0.0148,-0.0208,-0.0211,-0.0213,-0.0228,-0.0227,-0.0225,0,0,0,0,0,0,0.0111,0.0102,0.0012,0.0042,0.0028,-0.0034,-0.0043,-0.0053,-0.0065,-0.0123,-0.0132,-0.0096,-0.0166,-0.0175,-0.0194,-0.0153,-0.0212,-0.0215,-0.023,-0.0228,-0.0226,-0.0118,0,0,0,0,0,0,0.0116,0.0104,0.0109,0.0043,0.0026,-0.0011,-0.0044,-0.0055,-0.0079,-0.0082,-0.0128,-0.0136,-0.0167,-0.0189,-0.0197,-0.0158,-0.0218,-0.0232,-0.0229,-0.0226,-0.0124,-0.0113,-0.0104,0,0,0,0,0,0.0121,0.0128,0.011,0.0099,0.0032,-0.0011,-0.0021,-0.0064,-0.0079,-0.0075,-0.0108,-0.0134,-0.0177,-0.0191,-0.0201,-0.0162,-0.0233,-0.023,-0.0227,-0.0128,-0.0115,-0.0104,0,0,0,0,0,0,0.0179,0.0122,0.0101,0.009,0.0048,-0.002,-0.0026,-0.0056,-0.008,-0.0082,-0.013,-0.0139,-0.0135,-0.0168,-0.0182,-0.0158,-0.0204,-0.0203,-0.0126,-0.0114,-0.0104,-0.0074,-0.022,0,0,0,0,0,0.0194,0.019,0.0124,0.0118,0.0099,0.0039,0.0018,-0.0013,-0.0052,-0.0063,-0.0097,-0.0123,-0.013,-0.0139,-0.016,-0.0157,-0.017,-0.0134,-0.0124,-0.0115,-0.0097,-0.0079,-0.0066,-0.0215,-0.0215,-0.0215,0,0,0.0213,0.0182,0.0178,0.0131,0.0095,0.0086,0.0028,0.0,0.0006,-0.0067,-0.0063,-0.0094,-0.0123,-0.0112,-0.0112,-0.0134,-0.0081,-0.0111,-0.0104,-0.009,-0.0075,-0.006,-0.0047,-0.0213,-0.0213,-0.0213,0,0,0.0252,0.0223,0.0233,0.0206,0.0154,0.0121,0.0118,0.0057,0.0046,0.0032,-0.0001,-0.0005,-0.0043,-0.004,-0.0045,0.0007,-0.0029,-0.0003,0.0074,0.0091,0.0103,0.0115,0.0115,0.0126,0.0004,0.0005,0.0005,0,0.0277,0.028,0.0229,0.023,0.0218,0.0146,0.0157,0.0136,0.0081,0.0087,0.005,0.0035,0.0003,0.0045,0.0063,0.0034,0.0025,0.0031,0.0106,0.0116,0.0126,0.0124,0.0134,0.001,0.0009,0.0009,0.0008,0,0.0318,0.0323,0.0325,0.0311,0.0297,0.0289,0.0249,0.0243,0.0214,0.0193,0.021,0.0167,0.0164,0.0157,0.0122,0.0184,0.015,0.0116,0.0079,0.0148,0.014,0.0149,0.0018,0.0016,0.0014,0.0013,0,0,0.0358,0.0358,0.0357,0.0371,0.0339,0.0329,0.0351,0.0349,0.0376,0.0334,0.0378,0.0358,0.0329,0.0322,0.0286,0.0296,0.0347,0.0239,0.0237,0.0247,0.0376,0.032,0.0323,0.0324,0.0326,0.0328,0.0343,0,0.0402,0.0439,0.0425,0.0463,0.0476,0.044,0.0472,0.0467,0.0452,0.0476,0.0452,0.0471,0.0396,0.0403,0.0404,0.0368,0.0375,0.0346,0.0301,0.03,0.0249,0.0333,0.0304,0.0312,0.0351,0.0352,0.0353,0,0.0441,0.0462,0.0513,0.0549,0.0552,0.0568,0.0602,0.0618,0.0637,0.0635,0.0645,0.0617,0.0642,0.0559,0.0543,0.0526,0.0465,0.0423,0.0422,0.0342,0.0261,0.0249,0.0326,0.0194,0.0366,0.0365,0.0364,0,0.0488,0.0523,0.0573,0.0578,0.0605,0.063,0.0644,0.0665,0.071,0.0738,0.0783,0.0774,0.0798,0.0731,0.0633,0.0597,0.0602,0.0541,0.0434,0.0428,0.0382,0.0368,0.0334,0.0535,0.0535,0.0534,0.0534,0,0.0538,0.0574,0.0597,0.0618,0.0684,0.0681,0.0754,0.0766,0.0827,0.0912,0.0869,0.0943,0.0844,0.0823,0.0702,0.0605,0.0658,0.0474,0.0443,0.0415,0.0405,0.0268,0.0181,0.0535,0.0535,0.0535,0.0535,0,0.0581,0.0598,0.0649,0.0688,0.0704,0.0744,0.0821,0.0887,0.0928,0.1042,0.107,0.11,0.1074,0.0949,0.0856,0.0714,0.0522,0.055,0.0515,0.0479,0.0236,0.0156,0.0086,0.0023,0.0448,0.0447,0.0447,0,0.0614,0.0642,0.0691,0.073,0.0747,0.0808,0.0871,0.0927,0.1011,0.1145,0.1224,0.1243,0.1274,0.1106,0.0863,0.0658,0.0511,0.0471,0.0395,0.0246,0.0135,0.008,0.0029,0.0374,0.0373,0.0372,0.0371,0,0.0668,0.0676,0.0717,0.0791,0.0853,0.0937,0.1027,0.1115,0.1213,0.1331,0.1476,0.1516,0.1353,0.1148,0.0843,0.0676,0.0359,0.0438,0.031,0.0106,0.0023,-0.0061,0.0325,0.0361,0.0362,0.0362,0.0363,0.0363,0.0703,0.0739,0.0788,0.0861,0.0942,0.1062,0.1148,0.1278,0.144,0.1631,0.1651,0.1728,0.1393,0.0985,0.0745,0.0269,0.0287,0.0116,0.0043,0.0011,-0.008,0.0274,0.025,0.0251,0.0251,0.0251,0.0252,0,0.0747,0.0792,0.0863,0.0957,0.1058,0.1091,0.126,0.1372,0.1576,0.1736,0.1861,0.1714,0.1311,0.0875,0.0241,-0.0067,-0.0173,-0.0232,-0.0308,-0.0334,0.001,-0.0025,-0.0141,-0.014,-0.014,-0.014,-0.014,-0.014,0.0778,0.0846,0.0881,0.104,0.1116,0.1264,0.1366,0.1542,0.1679,0.1863,0.1893,0.1899,0.1532,0.0461,-0.0245,-0.0401,-0.0598,-0.0661,-0.0733,-0.051,-0.0483,-0.0457,-0.0508,-0.0722,-0.0723,-0.1041,-0.1045,-0.1048]}],[{"header":{"parameterUnit":"m.s-1","parameterCategory":2,"la1":30.2991,"la2":30.254,"lo1":-89.0895,"lo2":-89.0444,"dy":0.0017,"dx":0.0017,"nx":28,"ny":28,"refTime":"2025-05-18T21:00:00:Z","depth":"2","parameterNumber":2,"parameterNumberName":"U-component_of_CURRENTS"},"data":[0,0,0,0,0,0,0,0,0,0,0,0,0,0,0,0,0,0,0,0,0,0,0,0,0,0,0,0,0,0,0,0,0,0,0,0,0,0,0,0,0,0,0,0,0,0,0,0,0,0,0,0,0,0,0,0,0,0,0.282,0.2821,0,0.2901,0.2902,0.2903,0.2944,0.2944,0.2944,0.2944,0.2937,0.2937,0.2936,0,0,0,0,0,0,0,0,0,0,0,0,0,0.2604,0.2609,0.282,0.2821,0.2822,0.2901,0.2902,0.2903,0.2944,0.2944,0.2944,0.2945,0.2937,0.2937,0.2936,0,0,0,0,0,0,0,0,0,0,0,0,0,0.2693,0.261,0.282,0.2852,0.2856,0.2901,0.2902,0.2904,0.2944,0.2944,0.2944,0.2945,0.2937,0.2937,0.2936,0.2932,0,0,0.2935,0.2935,0,0,0,0,0,0,0,0,0.2688,0.2701,0.2847,0.285,0.2855,0.2913,0.2824,0.2909,0.2944,0.291,0.2944,0.2945,0.2921,0.2922,0.2938,0.2931,0.2931,0.2935,0.2935,0.2935,0.2935,0,0,0,0,0,0,0,0.2682,0.2697,0.2852,0.2848,0.2853,0.283,0.2844,0.284,0.2912,0.2913,0.2917,0.2926,0.2923,0.2938,0.2937,0.2931,0.2935,0.2935,0.2934,0.2934,0.2995,0.2996,0,0,0,0,0,0,0.2679,0.2692,0.2849,0.2854,0.277,0.2834,0.2849,0.2894,0.2914,0.2918,0.2926,0.2928,0.2939,0.2938,0.2937,0.2982,0.2935,0.2934,0.2934,0.2993,0.2995,0.2997,0,0,0,0,0,0,0.2674,0.2693,0.2846,0.2772,0.279,0.2839,0.2888,0.2895,0.2924,0.2925,0.2927,0.2948,0.2939,0.2938,0.2966,0.2979,0.2934,0.2934,0.2991,0.2993,0.2996,0.3038,0,0,0,0,0,0,0.2669,0.2692,0.2726,0.2774,0.2795,0.2889,0.2888,0.2897,0.2929,0.2932,0.2944,0.2943,0.2939,0.2967,0.2965,0.2978,0.2933,0.2988,0.2992,0.2995,0.3034,0.3042,0.3048,0,0,0,0,0,0.2661,0.2705,0.2728,0.2746,0.284,0.289,0.2899,0.293,0.293,0.2953,0.2969,0.2943,0.2987,0.2968,0.2966,0.2979,0.2987,0.2991,0.2995,0.3031,0.304,0.3048,0,0,0,0,0,0,0.2609,0.2715,0.274,0.281,0.2854,0.2897,0.2918,0.2937,0.2969,0.2968,0.2966,0.2967,0.3003,0.2989,0.2967,0.3011,0.2982,0.2986,0.3011,0.3019,0.3026,0.3038,0.2933,0,0,0,0,0,0.2619,0.2698,0.2762,0.2818,0.2838,0.2878,0.2902,0.2926,0.2957,0.2972,0.2982,0.2993,0.3017,0.3016,0.3036,0.3047,0.3077,0.3056,0.3063,0.3069,0.3081,0.3154,0.3169,0.3011,0.3011,0.3011,0,0,0.2607,0.268,0.2719,0.2814,0.2845,0.288,0.2893,0.2935,0.2963,0.2962,0.3,0.3022,0.3031,0.3063,0.3074,0.3049,0.3134,0.3075,0.3079,0.3088,0.316,0.3175,0.3189,0.3013,0.3013,0.3013,0,0,0.2622,0.2692,0.2755,0.2795,0.2861,0.2888,0.2901,0.2954,0.2979,0.3018,0.3036,0.3077,0.3087,0.3115,0.3123,0.3178,0.318,0.3174,0.3201,0.3272,0.3285,0.3298,0.3369,0.3387,0.3162,0.3163,0.3163,0,0.2588,0.2702,0.277,0.2823,0.2851,0.289,0.2924,0.2956,0.3012,0.3037,0.3033,0.3109,0.3115,0.3171,0.3197,0.3192,0.3236,0.3162,0.3281,0.3294,0.3305,0.3375,0.3395,0.3165,0.3165,0.3165,0.3164,0,0.2668,0.2726,0.2754,0.2849,0.2881,0.2921,0.2964,0.3001,0.3025,0.3058,0.3127,0.3162,0.3205,0.3216,0.3219,0.3306,0.3313,0.3293,0.3256,0.3324,0.3393,0.3413,0.3169,0.3168,0.3167,0.3166,0,0,0.266,0.2784,0.2792,0.2821,0.29,0.2927,0.2975,0.3037,0.3069,0.3123,0.3178,0.3238,0.3265,0.3281,0.3302,0.3361,0.3485,0.3362,0.3364,0.3428,0.3656,0.3443,0.3444,0.3487,0.349,0.3493,0.3676,0,0.2691,0.2779,0.2845,0.2891,0.2923,0.2968,0.3006,0.3059,0.3105,0.3165,0.3221,0.3278,0.3284,0.3315,0.3381,0.3462,0.3537,0.3438,0.3586,0.359,0.3388,0.3459,0.3173,0.3291,0.3695,0.3698,0.37,0,0.2761,0.2808,0.2864,0.2914,0.2931,0.2958,0.3025,0.3067,0.3153,0.319,0.3264,0.3311,0.3419,0.3406,0.3588,0.3527,0.3605,0.3662,0.367,0.3467,0.3412,0.3288,0.3312,0.3733,0.373,0.3728,0.3726,0,0.2747,0.2818,0.2861,0.2881,0.2945,0.2968,0.2999,0.3073,0.312,0.3214,0.327,0.3379,0.3461,0.3567,0.3685,0.3653,0.3882,0.3843,0.3736,0.3723,0.3503,0.3462,0.3989,0.3989,0.3988,0.3988,0.3987,0,0.2776,0.2798,0.2849,0.287,0.2896,0.2944,0.2989,0.3038,0.3127,0.3191,0.3282,0.3369,0.3512,0.3647,0.3727,0.3785,0.3921,0.3759,0.3754,0.3507,0.3466,0.3857,0.384,0.3995,0.3993,0.3992,0.3991,0,0.2755,0.2804,0.2835,0.2884,0.2894,0.2905,0.2969,0.3007,0.3101,0.3196,0.3235,0.3407,0.3553,0.3684,0.3873,0.3826,0.3906,0.3903,0.3595,0.3544,0.3696,0.3679,0.3782,0.3776,0.3771,0.3767,0.3763,0,0.2756,0.2776,0.2818,0.2826,0.2845,0.287,0.2893,0.2977,0.3032,0.3213,0.3267,0.3442,0.3518,0.3685,0.3657,0.3716,0.3867,0.3461,0.3308,0.3689,0.3676,0.3666,0.3656,0.3076,0.3067,0.3059,0.3054,0,0.2732,0.2752,0.2777,0.2789,0.2805,0.2818,0.2864,0.2903,0.302,0.3107,0.3243,0.3312,0.3419,0.33,0.332,0.3323,0.3398,0.3302,0.384,0.3119,0.3022,0.3008,0.3022,0.2988,0.2995,0.3,0.3003,0.3006,0.2702,0.2707,0.2742,0.2737,0.2753,0.2751,0.2737,0.2812,0.287,0.2913,0.3059,0.3022,0.3028,0.2854,0.282,0.2791,0.3003,0.2878,0.2903,0.2936,0.2768,0.266,0.2532,0.2535,0.2539,0.2541,0.2544,0,0.2643,0.2671,0.2681,0.2673,0.2646,0.2679,0.2704,0.2668,0.2691,0.2679,0.2689,0.2397,0.2293,0.2367,0.2189,0.2154,0.2179,0.2102,0.2123,0.2187,0.2244,0.2043,0.1615,0.1612,0.161,0.1608,0,0,0.2626,0.262,0.2619,0.2557,0.2548,0.2479,0.2467,0.2436,0.2401,0.2212,0.2088,0.2098,0.2217,0.184,0.1809,0.1692,0.1935,0.1636,0.2378,0.2463,0.2517,0.2682,0.2441,0,0,0,0,0]},{"header":{"parameterUnit":"m.s-1","parameterCategory":2,"la1":30.2991,"la2":30.254,"lo1":-89.0895,"lo2":-89.0444,"dy":0.0017,"dx":0.0017,"nx":28,"ny":28,"refTime":"2025-05-18T21:00:00:Z","depth":"2","parameterNumber":3,"parameterNumberName":"V-component_of_CURRENTS"},"data":[0,0,0,0,0,0,0,0,0,0,0,0,0,0,0,0,0,0,0,0,0,0,0,0,0,0,0,0,0,0,0,0,0,0,0,0,0,0,0,0,0,0,0,0,0,0,0,0,0,0,0,0,0,0,0,0,0,0,-0.0092,-0.0094,0,-0.0242,-0.0244,-0.0245,-0.0308,-0.0308,-0.0307,-0.0307,-0.0499,-0.0505,-0.051,0,0,0,0,0,0,0,0,0,0,0,0,0,0.0003,0.0003,-0.0092,-0.0094,-0.0096,-0.0242,-0.0244,-0.0246,-0.0308,-0.0308,-0.0307,-0.0307,-0.0498,-0.0504,-0.0511,0,0,0,0,0,0,0,0,0,0,0,0,0,-0.0082,0.0002,-0.0092,-0.0144,-0.015,-0.0241,-0.0244,-0.0246,-0.0308,-0.0308,-0.0307,-0.0307,-0.0495,-0.0503,-0.0511,-0.0573,0,0,-0.0536,-0.054,0,0,0,0,0,0,0,0,-0.0077,-0.0085,-0.0135,-0.0141,-0.0148,-0.0255,-0.0281,-0.0357,-0.0308,-0.0249,-0.0307,-0.0307,-0.0422,-0.0436,-0.0466,-0.0582,-0.059,-0.0537,-0.0542,-0.0546,-0.0548,0,0,0,0,0,0,0,-0.0071,-0.008,-0.0152,-0.0137,-0.0145,-0.0207,-0.0217,-0.0296,-0.0338,-0.0254,-0.0259,-0.0275,-0.0425,-0.0457,-0.0471,-0.0593,-0.0537,-0.0544,-0.0549,-0.0552,-0.066,-0.0658,0,0,0,0,0,0,-0.0044,-0.0074,-0.0147,-0.0157,-0.0109,-0.0208,-0.022,-0.0222,-0.0336,-0.0353,-0.0275,-0.0277,-0.0444,-0.0461,-0.0478,-0.0463,-0.0546,-0.0553,-0.0558,-0.0662,-0.0659,-0.0657,0,0,0,0,0,0,-0.0041,-0.0049,-0.0141,-0.0119,-0.0135,-0.0209,-0.0212,-0.0225,-0.0241,-0.0351,-0.0369,-0.0275,-0.0444,-0.0466,-0.0508,-0.0474,-0.0557,-0.0564,-0.0664,-0.0661,-0.0658,-0.0493,0,0,0,0,0,0,-0.0038,-0.0046,-0.0038,-0.0116,-0.0135,-0.0172,-0.0213,-0.0228,-0.0252,-0.0256,-0.0358,-0.0376,-0.0445,-0.0495,-0.0516,-0.0487,-0.0571,-0.0667,-0.0663,-0.0659,-0.0501,-0.0485,-0.0471,0,0,0,0,0,-0.0034,-0.0025,-0.0036,-0.0046,-0.012,-0.0171,-0.0186,-0.0239,-0.0252,-0.0252,-0.0305,-0.0372,-0.0485,-0.05,-0.0526,-0.0498,-0.0669,-0.0664,-0.0659,-0.0508,-0.0488,-0.0471,0,0,0,0,0,0,0.0014,-0.0033,-0.0047,-0.0053,-0.0095,-0.0181,-0.0194,-0.0225,-0.0269,-0.027,-0.0362,-0.0383,-0.0401,-0.0472,-0.0487,-0.0513,-0.0583,-0.0583,-0.0459,-0.0442,-0.0427,-0.0409,-0.0577,0,0,0,0,0,0.0032,0.0033,-0.0026,-0.0029,-0.0046,-0.0113,-0.014,-0.0172,-0.0226,-0.0244,-0.031,-0.037,-0.0407,-0.0439,-0.0494,-0.0527,-0.0566,-0.0519,-0.0503,-0.049,-0.049,-0.049,-0.0474,-0.0642,-0.0642,-0.0642,0,0,0.0045,0.0023,0.002,-0.0018,-0.0058,-0.0077,-0.0127,-0.0157,-0.0162,-0.0261,-0.0282,-0.0324,-0.04,-0.0416,-0.0432,-0.0472,-0.046,-0.0484,-0.0472,-0.048,-0.0483,-0.0467,-0.0452,-0.0639,-0.0639,-0.064,0,0,0.0076,0.0059,0.0071,0.0044,0.0001,-0.0043,-0.004,-0.0106,-0.0119,-0.0149,-0.0196,-0.0207,-0.0302,-0.0324,-0.0353,-0.0292,-0.0373,-0.031,-0.0233,-0.023,-0.0216,-0.0205,-0.0218,-0.0209,-0.0309,-0.0309,-0.0308,0,0.0096,0.0103,0.0064,0.0067,0.0051,-0.0016,-0.0011,-0.0042,-0.0108,-0.0103,-0.0133,-0.0189,-0.0253,-0.0241,-0.0215,-0.0257,-0.0278,-0.0294,-0.0209,-0.0198,-0.0189,-0.0207,-0.0199,-0.03,-0.0301,-0.0302,-0.0303,0,0.0129,0.0136,0.0138,0.0126,0.0108,0.0096,0.0053,0.0048,0.0022,-0.0007,0.0007,-0.0054,-0.0083,-0.0092,-0.0146,-0.01,-0.0141,-0.0181,-0.0251,-0.0162,-0.0186,-0.0181,-0.0288,-0.0291,-0.0294,-0.0296,0,0,0.0169,0.0165,0.0169,0.0179,0.014,0.0127,0.0138,0.0129,0.0154,0.0113,0.0156,0.0111,0.0092,0.0061,0.0018,0.0015,0.0065,-0.0052,-0.0056,-0.0059,0.0064,-0.0027,-0.0031,0.0044,0.0046,0.0047,0.0027,0,0.0207,0.0236,0.0225,0.0246,0.0248,0.0217,0.024,0.0231,0.0215,0.0236,0.0212,0.0221,0.0147,0.0157,0.0147,0.0084,0.0083,0.0073,-0.0029,-0.0033,-0.0119,-0.0027,0.0002,-0.0019,0.0032,0.0033,0.0033,0,0.0246,0.0258,0.0298,0.032,0.0324,0.0334,0.0365,0.0374,0.0389,0.0394,0.0403,0.0368,0.0371,0.03,0.0243,0.024,0.0167,0.0113,0.011,-0.0035,-0.0115,-0.0105,-0.0013,0.0041,0.004,0.0039,0.0039,0,0.0293,0.0313,0.0352,0.0352,0.0365,0.04,0.0408,0.0427,0.0468,0.0497,0.054,0.0513,0.053,0.044,0.0315,0.0286,0.0246,0.0188,0.0041,0.0033,0.0003,-0.0011,0.016,0.016,0.016,0.016,0.016,0,0.0337,0.0367,0.0379,0.0398,0.0456,0.0453,0.0529,0.0542,0.06,0.0679,0.0628,0.0692,0.057,0.0521,0.0378,0.0228,0.0295,0.007,0.0031,0.0061,0.0053,0.0049,0.0036,0.016,0.016,0.016,0.016,0,0.0387,0.0396,0.0435,0.0465,0.048,0.0522,0.0598,0.0661,0.0706,0.0815,0.0841,0.0845,0.0768,0.0617,0.0481,0.0323,0.0176,0.0107,0.0138,0.0101,-0.0058,-0.0062,-0.0063,-0.0066,-0.0069,-0.0071,-0.0073,0,0.0418,0.0443,0.0482,0.0514,0.0532,0.0594,0.0655,0.0709,0.0784,0.0913,0.0981,0.0958,0.0938,0.0686,0.0423,0.0163,0.0145,0.0006,-0.0061,-0.0038,-0.0076,-0.0076,-0.0076,-0.002,-0.0021,-0.0022,-0.0023,0,0.0461,0.0477,0.0506,0.0575,0.0635,0.0712,0.0799,0.0878,0.0979,0.1077,0.1203,0.1201,0.0972,0.0713,0.0339,0.0164,0.0037,-0.0031,0.0033,0.0008,-0.0006,-0.0042,-0.0041,-0.0033,-0.0032,-0.0031,-0.0031,-0.003,0.049,0.0516,0.056,0.0628,0.0714,0.083,0.0914,0.1032,0.1171,0.1316,0.1313,0.1297,0.1023,0.051,0.0237,-0.005,-0.006,-0.0172,-0.0164,-0.0156,-0.0171,-0.0192,-0.0256,-0.0257,-0.0257,-0.0257,-0.0257,0,0.0487,0.054,0.0609,0.0694,0.0806,0.0858,0.1016,0.1106,0.1285,0.1368,0.1434,0.1142,0.0842,0.0538,0.0097,-0.0188,-0.0165,-0.0267,-0.0167,-0.0158,-0.0149,-0.0159,-0.0244,-0.0244,-0.0245,-0.0245,0,0,0.0495,0.0531,0.0566,0.0739,0.0849,0.1009,0.1119,0.1261,0.1339,0.1396,0.1374,0.1266,0.09,0.0573,0.0224,-0.0003,-0.0014,-0.0047,-0.0034,0.0134,0.0146,-0.0078,-0.0083,0,0,0,0,0]}],[{"header":{"parameterUnit":"m.s-1","parameterCategory":2,"la1":30.2991,"la2":30.254,"lo1":-89.0895,"lo2":-89.0444,"dy":0.0017,"dx":0.0017,"nx":28,"ny":28,"refTime":"2025-05-18T21:00:00:Z","depth":"4","parameterNumber":2,"parameterNumberName":"U-component_of_CURRENTS"},"data":[0,0,0,0,0,0,0,0,0,0,0,0,0,0,0,0,0,0,0,0,0,0,0,0,0,0,0,0,0,0,0,0,0,0,0,0,0,0,0,0,0,0,0,0,0,0,0,0,0,0,0,0,0,0,0,0,0,0,0.0413,0.0414,0,0.0454,0.0454,0.0455,0.0542,0.0544,0.0546,0.0547,0.0815,0.0821,0.0826,0,0,0,0,0,0,0,0,0,0,0,0,0,0.068,0.0673,0.0413,0.0414,0.0414,0.0454,0.0454,0.0455,0.0542,0.0544,0.0546,0.0548,0.0814,0.082,0.0827,0,0,0,0,0,0,0,0,0,0,0,0,0,0.0626,0.067,0.0413,0.0462,0.0466,0.0453,0.0454,0.0455,0.0541,0.0544,0.0546,0.0549,0.0811,0.0819,0.0828,0.0828,0,0,0.0853,0.0857,0,0,0,0,0,0,0,0,0.0629,0.0616,0.0454,0.0458,0.0464,0.0495,0.0647,0.0591,0.0541,0.0514,0.0547,0.055,0.0727,0.0742,0.0742,0.084,0.0852,0.0854,0.0859,0.0862,0.0865,0,0,0,0,0,0,0,0.0632,0.0617,0.043,0.0454,0.046,0.0574,0.0566,0.0637,0.061,0.0516,0.0523,0.0525,0.0732,0.0733,0.075,0.0856,0.0854,0.0861,0.0866,0.0869,0.1172,0.1175,0,0,0,0,0,0,0.0607,0.0617,0.0429,0.0431,0.0553,0.0565,0.0558,0.0483,0.0605,0.0624,0.0523,0.0529,0.0718,0.074,0.076,0.0963,0.0862,0.087,0.0875,0.1169,0.1173,0.1176,0,0,0,0,0,0,0.0611,0.0586,0.0427,0.0531,0.0519,0.0556,0.0473,0.0482,0.0555,0.0607,0.0631,0.0594,0.0721,0.0748,0.0884,0.0967,0.0874,0.0882,0.1166,0.117,0.1175,0.1245,0,0,0,0,0,0,0.0617,0.0585,0.0552,0.0525,0.0511,0.0452,0.0471,0.0481,0.0548,0.0558,0.0675,0.0698,0.0725,0.0871,0.0892,0.0977,0.0888,0.1162,0.1168,0.1173,0.1239,0.1251,0.1262,0,0,0,0,0,0.0625,0.0558,0.0547,0.0528,0.045,0.0452,0.0457,0.0497,0.055,0.0576,0.0672,0.0698,0.0923,0.088,0.0904,0.0993,0.1159,0.1166,0.1173,0.1233,0.1249,0.1262,0,0,0,0,0,0,0.0689,0.056,0.0548,0.0453,0.047,0.0468,0.0485,0.0535,0.0626,0.0658,0.0734,0.0763,0.0915,0.0941,0.0892,0.1096,0.1047,0.1059,0.1085,0.11,0.1112,0.1095,0.0895,0,0,0,0,0,0.0672,0.0566,0.0526,0.0465,0.0461,0.0493,0.0513,0.0545,0.0605,0.0649,0.0734,0.0836,0.0946,0.1014,0.109,0.1201,0.1172,0.1275,0.1287,0.1296,0.13,0.13,0.131,0.1199,0.1199,0.1199,0,0,0.0697,0.0601,0.0559,0.0472,0.0477,0.05,0.0513,0.0544,0.0606,0.0666,0.0795,0.0885,0.0985,0.1108,0.1179,0.1153,0.1314,0.1305,0.1313,0.1311,0.1308,0.1318,0.1327,0.1204,0.1203,0.1202,0,0,0.0682,0.0593,0.0516,0.0524,0.0514,0.0534,0.0564,0.0598,0.0651,0.0771,0.0845,0.0971,0.113,0.12,0.1266,0.1387,0.1375,0.1445,0.1499,0.1499,0.1507,0.1514,0.1482,0.1485,0.1451,0.1451,0.1451,0,0.0733,0.0603,0.0525,0.0493,0.0521,0.0564,0.0591,0.0642,0.0739,0.0801,0.0828,0.1087,0.1164,0.1334,0.1386,0.1414,0.1405,0.1437,0.151,0.1516,0.1522,0.1488,0.149,0.1455,0.1455,0.1454,0.1454,0,0.066,0.0621,0.0596,0.0543,0.0574,0.0602,0.0654,0.0737,0.0828,0.0888,0.1072,0.1169,0.1339,0.1383,0.1438,0.1556,0.1534,0.1519,0.1463,0.1537,0.1497,0.1498,0.1461,0.146,0.1458,0.1457,0,0,0.0637,0.0553,0.0564,0.0568,0.0608,0.0622,0.0739,0.0834,0.0921,0.1049,0.1172,0.1367,0.1447,0.1525,0.1607,0.1607,0.1642,0.1603,0.1601,0.1549,0.1635,0.158,0.1575,0.165,0.1652,0.1652,0.1586,0,0.0634,0.0566,0.0548,0.061,0.0607,0.0702,0.0804,0.0914,0.1008,0.1133,0.1268,0.1436,0.1496,0.1618,0.1635,0.1664,0.1653,0.166,0.159,0.1587,0.1511,0.1577,0.1656,0.1587,0.1587,0.1587,0.1587,0,0.0576,0.054,0.0548,0.0617,0.0632,0.0722,0.0876,0.0979,0.1157,0.1235,0.1417,0.1529,0.1692,0.1674,0.1739,0.1756,0.1717,0.1673,0.1669,0.1593,0.1535,0.1503,0.1588,0.1588,0.1588,0.1588,0.1588,0,0.053,0.0558,0.0556,0.058,0.0666,0.0763,0.0886,0.1047,0.1138,0.1355,0.1436,0.1619,0.175,0.1749,0.1777,0.1775,0.1735,0.1707,0.1593,0.1586,0.1618,0.1611,0.1673,0.1673,0.1673,0.1673,0.1673,0,0.0479,0.0494,0.056,0.0559,0.0668,0.0771,0.0909,0.1051,0.1238,0.133,0.1538,0.1611,0.1774,0.1807,0.1776,0.1718,0.1759,0.1609,0.1577,0.165,0.1648,0.1617,0.1611,0.1671,0.1671,0.1672,0.1672,0,0.0396,0.0411,0.0433,0.0557,0.0627,0.0733,0.0952,0.1034,0.1238,0.1367,0.1477,0.1657,0.1723,0.1795,0.1772,0.1722,0.1652,0.1594,0.1669,0.164,0.1487,0.1487,0.1464,0.1462,0.146,0.1459,0.1457,0,0.0321,0.0316,0.043,0.0475,0.0548,0.0716,0.0824,0.1049,0.1103,0.1341,0.1365,0.1554,0.1646,0.1579,0.1639,0.1605,0.1569,0.1534,0.1522,0.1501,0.1472,0.1474,0.1476,0.1454,0.1454,0.1453,0.1453,0,0.0234,0.0283,0.0307,0.0403,0.0516,0.0602,0.0768,0.0815,0.1042,0.119,0.1289,0.1405,0.1445,0.15,0.1528,0.147,0.1579,0.1514,0.1516,0.1504,0.1488,0.1462,0.1466,0.1446,0.1447,0.1448,0.1448,0,0.0204,0.0217,0.0266,0.0354,0.0442,0.05,0.0599,0.0701,0.0824,0.1086,0.1078,0.1255,0.1396,0.1418,0.1398,0.1424,0.1386,0.1336,0.1347,0.1355,0.1362,0.1328,0.1215,0,0,0,0,0,0.0182,0.0181,0.0225,0.03,0.0362,0.0426,0.0543,0.0628,0.081,0.0856,0.0999,0.1049,0.1172,0.122,0.1223,0.1304,0.1359,0.1298,0.1297,0.141,0.1417,0.1442,0,0,0,0,0,0,0.0156,0.0184,0.0194,0.0226,0.0265,0.0345,0.0417,0.0545,0.0559,0.0755,0.0801,0.0974,0.106,0.1166,0.1199,0.122,0.1196,0.1399,0.1396,0.1405,0.1412,0.1418,0.1447,0,0,0,0,0]},{"header":{"parameterUnit":"m.s-1","parameterCategory":2,"la1":30.2991,"la2":30.254,"lo1":-89.0895,"lo2":-89.0444,"dy":0.0017,"dx":0.0017,"nx":28,"ny":28,"refTime":"2025-05-18T21:00:00:Z","depth":"4","parameterNumber":3,"parameterNumberName":"V-component_of_CURRENTS"},"data":[0,0,0,0,0,0,0,0,0,0,0,0,0,0,0,0,0,0,0,0,0,0,0,0,0,0,0,0,0,0,0,0,0,0,0,0,0,0,0,0,0,0,0,0,0,0,0,0,0,0,0,0,0,0,0,0,0,0,0.0405,0.0406,0,0.044,0.044,0.044,0.047,0.047,0.047,0.0471,0.0407,0.0405,0.0403,0,0,0,0,0,0,0,0,0,0,0,0,0,0.0223,0.0227,0.0405,0.0406,0.0406,0.044,0.044,0.044,0.047,0.047,0.0471,0.0471,0.0408,0.0406,0.0403,0,0,0,0,0,0,0,0,0,0,0,0,0,0.0285,0.0229,0.0405,0.0425,0.0427,0.044,0.044,0.0441,0.047,0.047,0.0471,0.0471,0.0409,0.0406,0.0403,0.0374,0,0,0.0394,0.0392,0,0,0,0,0,0,0,0,0.0281,0.0291,0.0422,0.0424,0.0426,0.0451,0.0353,0.0413,0.0469,0.0453,0.0471,0.0471,0.0413,0.0409,0.0416,0.0371,0.0368,0.0393,0.0392,0.039,0.0389,0,0,0,0,0,0,0,0.0277,0.0289,0.0419,0.0422,0.0425,0.0383,0.0394,0.0364,0.0427,0.0455,0.0457,0.0461,0.0413,0.0419,0.0414,0.0367,0.0393,0.0391,0.0389,0.0388,0.0228,0.0226,0,0,0,0,0,0,0.0281,0.0286,0.0418,0.042,0.0354,0.0387,0.0399,0.0442,0.043,0.043,0.0461,0.0462,0.0424,0.0418,0.0412,0.0361,0.039,0.0387,0.0386,0.0231,0.0228,0.0225,0,0,0,0,0,0,0.0278,0.0294,0.0416,0.0351,0.0364,0.0391,0.0439,0.0443,0.0479,0.0436,0.0433,0.0496,0.0424,0.0416,0.0399,0.0359,0.0386,0.0383,0.0234,0.023,0.0227,0.0268,0,0,0,0,0,0,0.0273,0.0294,0.033,0.0353,0.0368,0.0438,0.0438,0.0443,0.0478,0.0482,0.0464,0.0457,0.0424,0.0404,0.0396,0.0355,0.0381,0.0237,0.0232,0.0228,0.027,0.0266,0.0263,0,0,0,0,0,0.0267,0.0312,0.0332,0.0347,0.0417,0.0439,0.0443,0.0461,0.048,0.0496,0.048,0.0459,0.0367,0.0401,0.0392,0.035,0.0239,0.0233,0.0228,0.0271,0.0267,0.0263,0,0,0,0,0,0,0.0238,0.0319,0.0342,0.0408,0.0429,0.0444,0.0465,0.0481,0.0486,0.0489,0.046,0.0451,0.0409,0.0374,0.0413,0.0282,0.0286,0.0279,0.0321,0.0317,0.0314,0.0319,0.0378,0,0,0,0,0,0.0253,0.0323,0.0362,0.0414,0.0432,0.0457,0.0472,0.0482,0.0487,0.0494,0.0474,0.0429,0.0373,0.035,0.0301,0.0255,0.0216,0.0206,0.0203,0.0201,0.0193,0.01,0.0088,0.0207,0.0207,0.0207,0,0,0.0245,0.0309,0.0339,0.0414,0.0438,0.0456,0.0469,0.0498,0.0499,0.048,0.0476,0.0432,0.0361,0.0299,0.0272,0.0271,0.0149,0.0194,0.0194,0.0186,0.0093,0.0082,0.0072,0.0204,0.0204,0.0205,0,0,0.0272,0.0335,0.0399,0.0421,0.047,0.0472,0.049,0.0512,0.0513,0.0502,0.0465,0.0412,0.0352,0.028,0.0236,0.0185,0.0143,0.0152,0.0137,0.0047,0.0038,0.0029,-0.0008,-0.0021,0.0142,0.0142,0.0142,0,0.0262,0.036,0.0408,0.0461,0.0473,0.0486,0.0513,0.0506,0.0511,0.0496,0.05,0.0379,0.0332,0.0231,0.02,0.018,0.0139,0.0171,0.0047,0.0037,0.0027,-0.0009,-0.0023,0.0144,0.0144,0.0143,0.0143,0,0.0329,0.0395,0.0427,0.0505,0.0512,0.0538,0.0528,0.0529,0.0525,0.0503,0.043,0.0359,0.0279,0.0237,0.0206,0.009,0.009,0.0068,0.0071,0.0018,-0.0017,-0.0032,0.0146,0.0145,0.0145,0.0144,0,0,0.0335,0.0457,0.0469,0.0502,0.0539,0.0546,0.0538,0.0525,0.0512,0.0469,0.0432,0.0312,0.027,0.0214,0.0149,0.0062,-0.0032,0.0033,0.0028,0.0023,-0.02,-0.0133,-0.0143,-0.0076,-0.008,-0.0082,-0.0184,0,0.0376,0.0486,0.0523,0.0564,0.06,0.0591,0.058,0.0552,0.0516,0.0473,0.0374,0.0313,0.0258,0.0218,0.0115,0.0005,-0.0078,-0.0,-0.0172,-0.0177,-0.009,-0.0162,-0.0093,-0.0196,-0.0199,-0.0202,-0.0204,0,0.0437,0.0497,0.0576,0.061,0.0623,0.0644,0.0619,0.0607,0.0535,0.0499,0.0406,0.0333,0.0198,0.0167,-0.0055,-0.0004,-0.0106,-0.0187,-0.0193,-0.0159,-0.0141,-0.0146,-0.0233,-0.0231,-0.0229,-0.0227,-0.0225,0,0.0435,0.0526,0.0594,0.0608,0.0644,0.0671,0.0684,0.0634,0.0618,0.0527,0.0492,0.0324,0.0252,0.0081,-0.0085,-0.0082,-0.0309,-0.0323,-0.0356,-0.035,-0.0392,-0.0382,-0.0488,-0.0488,-0.0488,-0.0488,-0.0488,0,0.0474,0.0517,0.0618,0.0644,0.0694,0.0709,0.073,0.071,0.0673,0.0629,0.0517,0.043,0.022,0.0069,-0.0087,-0.0259,-0.0316,-0.0372,-0.039,-0.0369,-0.0356,-0.0401,-0.039,-0.0492,-0.0491,-0.049,-0.0489,0,0.0475,0.055,0.0608,0.0676,0.0712,0.0747,0.0805,0.0799,0.0767,0.0707,0.0684,0.0508,0.0312,0.0124,-0.0142,-0.0236,-0.0415,-0.0461,-0.0391,-0.0401,-0.0391,-0.0377,-0.0514,-0.0513,-0.0512,-0.0511,-0.051,0,0.0504,0.0544,0.0634,0.0676,0.0732,0.0799,0.0841,0.0852,0.082,0.0732,0.0679,0.0526,0.0383,0.0076,-0.0123,-0.0372,-0.0409,-0.0473,-0.0476,-0.0399,-0.0403,-0.039,-0.0378,-0.0509,-0.0508,-0.0508,-0.0508,0,0.0506,0.0546,0.0587,0.0685,0.0763,0.0811,0.0864,0.0856,0.0826,0.0804,0.0658,0.0515,0.0312,0.0074,-0.0093,-0.0288,-0.042,-0.0464,-0.0468,-0.0472,-0.0394,-0.0396,-0.0385,-0.0505,-0.0505,-0.0505,-0.0506,0,0.05,0.0526,0.0596,0.0675,0.075,0.0791,0.0832,0.0809,0.08,0.0708,0.0654,0.0465,0.0348,0.0116,-0.0065,-0.0211,-0.0259,-0.0305,-0.0318,-0.0323,-0.023,-0.0102,-0.0155,0,0,0,0,0,0.0486,0.0517,0.0582,0.0658,0.0723,0.0779,0.0811,0.0829,0.081,0.0717,0.0693,0.0505,0.0271,0.0145,0.0005,-0.0054,-0.0284,-0.022,-0.0343,-0.0486,-0.049,-0.0407,0,0,0,0,0,0,0.0471,0.053,0.0566,0.0624,0.0676,0.0751,0.0778,0.0785,0.0708,0.0674,0.0531,0.0492,0.0238,0.0351,0.0007,-0.0037,-0.0128,-0.0331,-0.0333,-0.0484,-0.0488,-0.0491,-0.0407,0,0,0,0,0]}]]